• In Slovakia
  • List of Countries
  • For 7 days
  • Water Temperature
  • Satellite Maps
  • Weather Map
  • Weather Widgets
  • user-avatar
    Login

    Hourly Weather Bratislava

    Today, 23 February, Friday

    Time Temperature Precipitation Wind Pressure Humidity
    00:00 -3°C° 0 mm 2 mps 750 mmHg 88%
    01:00 -3°C° 0 mm 2 mps 750 mmHg 88%
    02:00 -3°C° 0 mm 2 mps 750 mmHg 89%
    03:00 -3°C° 0 mm 2 mps 750 mmHg 89%
    04:00 -3°C° 0 mm 2 mps 750 mmHg 90%
    05:00 -3°C° 0.1 mm 2 mps 750 mmHg 90%
    06:00 -3°C° 0.1 mm 2 mps 750 mmHg 90%
    07:00 -4°C° 0 mm 2 mps 750 mmHg 91%
    08:00 -4°C° 0.1 mm 2 mps 750 mmHg 90%
    09:00 -3°C° 0.1 mm 2 mps 750 mmHg 88%
    10:00 -4°C° 0.1 mm 3 mps 750 mmHg 87%
    11:00 -2°C° 0.2 mm 3 mps 750 mmHg 87%
    12:00 -1°C° 0.2 mm 3 mps 750 mmHg 88%
    13:00 -1°C° 0 mm 3 mps 750 mmHg 87%
    14:00 -1°C° 0 mm 3 mps 750 mmHg 87%
    15:00 -1°C° 0 mm 3 mps 750 mmHg 86%
    16:00 -1°C° 0 mm 3 mps 750 mmHg 85%
    17:00 -2°C° 0 mm 3 mps 750 mmHg 86%
    18:00 -2°C° 0 mm 3 mps 750 mmHg 86%
    19:00 -4°C° 0 mm 3 mps 750 mmHg 87%
    20:00 -4°C° 0 mm 3 mps 751 mmHg 87%
    21:00 -4°C° 0 mm 3 mps 751 mmHg 86%
    22:00 -5°C° 0 mm 3 mps 751 mmHg 86%
    23:00 -5°C° 0 mm 3 mps 751 mmHg 86%

    Tomorrow, 24 February, Saturday

    Time Temperature Precipitation Wind Pressure Humidity
    00:00 -5°C° 0 mm 3 mps 751 mmHg 86%
    01:00 -5°C° 0 mm 3 mps 751 mmHg 85%
    02:00 -6°C° 0 mm 3 mps 751 mmHg 85%
    03:00 -6°C° 0 mm 3 mps 751 mmHg 85%
    04:00 -6°C° 0 mm 3 mps 751 mmHg 85%
    05:00 -7°C° 0 mm 3 mps 751 mmHg 85%
    06:00 -7°C° 0 mm 3 mps 751 mmHg 84%
    07:00 -7°C° 0 mm 3 mps 751 mmHg 84%
    08:00 -7°C° 0 mm 4 mps 752 mmHg 80%
    09:00 -5°C° 0 mm 4 mps 752 mmHg 75%
    10:00 -5°C° 0 mm 4 mps 752 mmHg 71%
    11:00 -5°C° 0 mm 5 mps 752 mmHg 69%
    12:00 -4°C° 0 mm 5 mps 751 mmHg 68%
    13:00 -4°C° 0 mm 6 mps 751 mmHg 67%
    14:00 -4°C° 0 mm 6 mps 751 mmHg 66%
    15:00 -4°C° 0 mm 6 mps 751 mmHg 66%
    16:00 -5°C° 0 mm 6 mps 751 mmHg 65%
    17:00 -5°C° 0 mm 5 mps 751 mmHg 67%
    18:00 -6°C° 0 mm 5 mps 752 mmHg 68%
    19:00 -7°C° 0 mm 5 mps 752 mmHg 70%
    20:00 -8°C° 0 mm 5 mps 753 mmHg 71%
    21:00 -8°C° 0 mm 5 mps 753 mmHg 72%
    22:00 -8°C° 0 mm 5 mps 754 mmHg 73%
    23:00 -10°C° 0 mm 5 mps 754 mmHg 72%

    Day after tomorrow, 25 February, Sunday

    Time Temperature Precipitation Wind Pressure Humidity
    00:00 -9°C° 0 mm 4 mps 754 mmHg 72%
    01:00 -10°C° 0 mm 4 mps 755 mmHg 71%
    02:00 -10°C° 0 mm 4 mps 755 mmHg 71%
    03:00 -10°C° 0 mm 4 mps 755 mmHg 71%
    04:00 -10°C° 0 mm 3 mps 755 mmHg 70%
    05:00 -10°C° 0 mm 3 mps 755 mmHg 71%
    06:00 -10°C° 0 mm 3 mps 755 mmHg 72%
    07:00 -12°C° 0 mm 3 mps 755 mmHg 73%
    08:00 -10°C° 0 mm 3 mps 755 mmHg 69%
    09:00 -9°C° 0 mm 3 mps 755 mmHg 65%
    10:00 -8°C° 0 mm 3 mps 755 mmHg 62%
    11:00 -8°C° 0 mm 3 mps 755 mmHg 59%
    12:00 -7°C° 0 mm 3 mps 755 mmHg 57%
    13:00 -6°C° 0 mm 3 mps 754 mmHg 54%
    14:00 -6°C° 0 mm 3 mps 754 mmHg 55%
    15:00 -5°C° 0 mm 2 mps 754 mmHg 56%
    16:00 -5°C° 0 mm 2 mps 754 mmHg 58%
    17:00 -6°C° 0 mm 2 mps 754 mmHg 61%
    18:00 -7°C° 0 mm 2 mps 754 mmHg 65%
    19:00 -9°C° 0 mm 3 mps 754 mmHg 69%
    20:00 -9°C° 0 mm 3 mps 754 mmHg 70%
    21:00 -9°C° 0 mm 3 mps 754 mmHg 71%
    22:00 -9°C° 0 mm 3 mps 755 mmHg 73%
    23:00 -9°C° 0 mm 2 mps 754 mmHg 73%

    26 February, Monday

    Time Temperature Precipitation Wind Pressure Humidity
    00:00 -9°C° 0 mm 2 mps 754 mmHg 74%
    01:00 -9°C° 0 mm 2 mps 754 mmHg 74%
    02:00 -9°C° 0 mm 2 mps 754 mmHg 75%
    03:00 -9°C° 0 mm 2 mps 753 mmHg 75%
    04:00 -12°C° 0 mm 3 mps 753 mmHg 76%
    05:00 -12°C° 0 mm 3 mps 753 mmHg 76%
    06:00 -12°C° 0 mm 3 mps 753 mmHg 76%
    07:00 -12°C° 0 mm 3 mps 753 mmHg 76%
    08:00 -10°C° 0 mm 3 mps 752 mmHg 72%
    09:00 -9°C° 0 mm 3 mps 752 mmHg 68%
    10:00 -9°C° 0 mm 4 mps 752 mmHg 63%
    11:00 -9°C° 0 mm 4 mps 752 mmHg 59%
    12:00 -8°C° 0 mm 4 mps 751 mmHg 56%
    13:00 -7°C° 0 mm 4 mps 751 mmHg 52%
    14:00 -7°C° 0 mm 4 mps 750 mmHg 53%
    15:00 -7°C° 0 mm 4 mps 750 mmHg 54%
    16:00 -7°C° 0 mm 4 mps 750 mmHg 55%
    17:00 -7°C° 0 mm 4 mps 750 mmHg 59%
    18:00 -8°C° 0 mm 4 mps 750 mmHg 62%
    19:00 -9°C° 0 mm 4 mps 749 mmHg 65%
    20:00 -9°C° 0 mm 4 mps 749 mmHg 65%
    21:00 -9°C° 0 mm 4 mps 749 mmHg 66%
    22:00 -9°C° 0 mm 3 mps 749 mmHg 67%
    23:00 -10°C° 0 mm 4 mps 749 mmHg 67%

    27 February, Tuesday

    Time Temperature Precipitation Wind Pressure Humidity
    00:00 -10°C° 0 mm 4 mps 748 mmHg 67%
    01:00 -11°C° 0 mm 4 mps 748 mmHg 68%
    02:00 -11°C° 0 mm 4 mps 748 mmHg 68%
    03:00 -11°C° 0 mm 4 mps 747 mmHg 68%
    04:00 -11°C° 0 mm 4 mps 747 mmHg 68%
    05:00 -11°C° 0 mm 4 mps 747 mmHg 68%
    06:00 -12°C° 0 mm 4 mps 747 mmHg 68%
    07:00 -12°C° 0 mm 4 mps 747 mmHg 68%
    08:00 -12°C° 0 mm 4 mps 747 mmHg 66%
    09:00 -12°C° 0 mm 5 mps 747 mmHg 64%
    10:00 -12°C° 0 mm 5 mps 747 mmHg 62%
    11:00 -11°C° 0 mm 5 mps 747 mmHg 60%
    12:00 -11°C° 0 mm 5 mps 747 mmHg 58%
    13:00 -10°C° 0 mm 5 mps 746 mmHg 57%
    14:00 -9°C° 0 mm 4 mps 746 mmHg 57%
    15:00 -9°C° 0 mm 4 mps 746 mmHg 57%
    16:00 -9°C° 0 mm 4 mps 746 mmHg 57%
    17:00 -9°C° 0 mm 4 mps 747 mmHg 60%
    18:00 -10°C° 0 mm 4 mps 747 mmHg 63%
    19:00 -10°C° 0 mm 4 mps 747 mmHg 65%
    20:00 -11°C° 0 mm 4 mps 747 mmHg 67%
    21:00 -10°C° 0 mm 3 mps 748 mmHg 68%
    22:00 -10°C° 0 mm 3 mps 748 mmHg 69%
    23:00 -12°C° 0 mm 3 mps 748 mmHg 70%

    28 February, Wednesday

    Time Temperature Precipitation Wind Pressure Humidity
    00:00 -12°C° 0 mm 3 mps 748 mmHg 71%
    01:00 -12°C° 0 mm 3 mps 748 mmHg 72%
    02:00 -12°C° 0 mm 3 mps 748 mmHg 73%
    03:00 -12°C° 0 mm 3 mps 748 mmHg 74%
    04:00 -13°C° 0 mm 3 mps 748 mmHg 75%
    05:00 -13°C° 0 mm 3 mps 748 mmHg 75%
    06:00 -13°C° 0 mm 3 mps 749 mmHg 76%
    07:00 -12°C° 0 mm 2 mps 749 mmHg 77%
    08:00 -10°C° 0 mm 2 mps 749 mmHg 72%
    09:00 -10°C° 0 mm 3 mps 749 mmHg 68%
    10:00 -9°C° 0 mm 3 mps 750 mmHg 64%
    11:00 -7°C° 0 mm 2 mps 749 mmHg 61%
    12:00 -6°C° 0 mm 2 mps 749 mmHg 57%
    13:00 -5°C° 0 mm 2 mps 749 mmHg 54%
    14:00 -5°C° 0 mm 2 mps 749 mmHg 54%
    15:00 -3°C° 0 mm 1 mps 749 mmHg 53%
    16:00 -3°C° 0 mm 1 mps 749 mmHg 53%
    17:00 -4°C° 0 mm 1 mps 750 mmHg 57%
    18:00 -6°C° 0 mm 1 mps 750 mmHg 61%
    19:00 -6°C° 0 mm 1 mps 750 mmHg 65%
    20:00 -7°C° 0 mm 1 mps 751 mmHg 67%
    21:00 -7°C° 0 mm 1 mps 751 mmHg 69%
    22:00 -7°C° 0 mm 1 mps 751 mmHg 71%
    23:00 -8°C° 0 mm 2 mps 751 mmHg 73%
    Show more